Location: Losili
(4.4086°N, 32.7049°E)
Time: 09:32:46
(UTC+00:00)

Okean 2 - Pass Details

Date: 18 September 2019
Orbit: 561 x 577 km, 82.5° (Epoch: 18 October)

Event Time Altitude Azimuth Distance (km) Brightness Sun altitude
Rises 16:16:29 0° 5° (N) 2,745 6.9 -8.1°
Reaches altitude 10° 16:18:42 10° 11° (N) 1,854 5.9 -8.7°
Maximum altitude 16:22:39 48° 86° (E) 747 3.6 -9.6°
Drops below altitude 10° 16:26:37 10° 161° (SSE) 1,869 5.8 -10.6°
Sets 16:28:52 0° 166° (SSE) 2,771 6.7 -11.2°
